Weather in Krasnoarmeyskoye

Russia / Saratov Oblast     51°12′43″N   44°24′02″E
temp.,
°C
wind,
m/s
gust,
m/s
humid.,
%
clouds,
%
prec.,
mm/h
press.,
hPa
HPBL,
m
18 april, sun
sun1801:00+7nw23870 0.0 102056
04:00+6wnw34850 0.0 102065
07:00+6nw35880 0.0 1019116
10:00+11nw3460100 0.0 1019660
13:00+14nw4446100 0.0 10191467
16:00+15nnw3344100 0.0 10181654
19:00+13nne225395 0.0 101825
22:00+10nne2266100 0.0 101819
19 april, mon
mon1901:00+8ene228952 0.0 101822
04:00+7ne33915 0.0 101732
07:00+7ne018996 0.0 101711
10:00+12ne116768 0.0 1017602
13:00+14e2252100 0.1 10161536
16:00+11e5672100 0.3 1017706
19:00+9e4680100 0.5 1018501
22:00+9ene5985100 0.8 1018423
20 april, tue
tue2001:00+8ene61188100 0.4 1018473
04:00+6e71390100 0.7 1019490
07:00+6e81487100 0.1 1019566
10:00+6e9148287 0.1 1019641
13:00+8ese101373100 0.0 1019873
16:00+9ese111769100 0.0 1017951
19:00+8ese112085100 2.4 1016934
22:00+8ese132281100 3.8 1014911
21 april, wed
wed2101:00+7se132382100 2.8 1014845
04:00+6se122190100 4.9 1013758
07:00+6sse111990100 0.1 1014713
10:00+6sse101889100 0.3 1015747
13:00+7sse81691100 0.3 1016762
16:00+9sse81288100 0.4 1017735
19:00+9sse4791100 0.3 1018324
22:00+8ssw2286100 0.4 102041
22 april, thu
thu2201:00+8s369196 0.2 1021135
04:00+8s1187100 0.3 102212
07:00+8sse2386100 0.0 102356
10:00+12s457037 0.4 1023553
13:00+14sw345384 0.5 10231472
16:00+14w3453100 0.6 1024936
19:00+12wsw1159100 0.0 102417
22:00+10nnw3675100 0.0 1025168